Location: Berg
(48.4333°N, 13.9167°E)
Time: 15:49:27
(UTC+00:00)

Cosmos 1867 - Pass Details

Date: 18 September 2020
Orbit: 777 x 799 km, 65.0° (Epoch: 24 October)

Event Time Altitude Azimuth Distance (km) Brightness Sun altitude
Rises 18:26:07 0° 320° (NW) 3,313 7.8 -13.2°
Reaches altitude 10° 18:28:33 10° 320° (NW) 2,380 7.0 -13.6°
Maximum altitude 18:34:02 78° 234° (SW) 820 3.7 -14.5°
Enters shadow 18:38:38 15° 150° (SSE) 2,049 5.3 -15.2°
